| time (UTC) | temp F | wind direction | speed MPH | gust MPH | rain 1hr in | rain 24hr in | rain mn in | humidity % | barometer mb |
| 20260904194531 | 103 | 323 | 3.0 | 6.0 | 0.00 | 0.00 | 0.00 | 41 | 1011.8 |
| 20260904193032 | 104 | 210 | 2.0 | 4.0 | 0.00 | 0.00 | 0.00 | 40 | 1011.8 |
| 20260904191540 | 103 | 121 | 4.0 | 8.0 | 0.00 | 0.00 | 0.00 | 39 | 1012.0 |
| 20260904190035 | 103 | 249 | 1.0 | 10.0 | 0.00 | 0.00 | 0.00 | 41 | 1012.2 |
| 20260904184527 | 103 | 197 | 2.0 | 6.0 | 0.00 | 0.00 | 0.00 | 44 | 1012.4 |
| 20260904183020 | 102 | 171 | 1.0 | 5.0 | 0.00 | 0.00 | 0.00 | 45 | 1013.1 |
| 20260904181517 | 101 | 343 | 1.0 | 5.0 | 0.00 | 0.00 | 0.00 | 48 | 1013.3 |
| 20260904180015 | 102 | 324 | 2.0 | 7.0 | 0.00 | 0.00 | 0.00 | 47 | 1013.4 |
| 20260904174511 | 102 | 15 | 1.0 | 3.0 | 0.00 | 0.00 | 0.00 | 49 | 1013.6 |
| 20260904173020 | 100 | 166 | 1.0 | 7.0 | 0.00 | 0.00 | 0.00 | 50 | 1013.7 |
| 20260904171506 | 100 | 197 | 3.0 | 8.0 | 0.00 | 0.00 | 0.00 | 49 | 1013.9 |
| 20260904170005 | 100 | 249 | 0.0 | 4.0 | 0.00 | 0.00 | 0.00 | 49 | 1013.9 |
| 20260904164557 | 100 | 46 | 2.0 | 5.0 | 0.00 | 0.00 | 0.00 | 50 | 1014.0 |
| 20260904163052 | 98 | 21 | 2.0 | 5.0 | 0.00 | 0.00 | 0.00 | 50 | 1014.3 |
| 20260904161558 | 98 | 312 | 1.0 | 8.0 | 0.00 | 0.00 | 0.00 | 53 | 1014.5 |
| 20260904160044 | 98 | 294 | 0.0 | 4.0 | 0.00 | 0.00 | 0.00 | 52 | 1014.6 |
| 20260904154544 | 96 | 334 | 1.0 | 5.0 | 0.00 | 0.00 | 0.00 | 57 | 1014.9 |
| 20260904153049 | 95 | 202 | 1.0 | 5.0 | 0.00 | 0.00 | 0.00 | 57 | 1014.9 |
| 20260904151534 | 94 | 252 | 1.0 | 7.0 | 0.00 | 0.00 | 0.00 | 61 | 1015.0 |
| 20260904150034 | 93 | 192 | 2.0 | 6.0 | 0.00 | 0.00 | 0.00 | 62 | 1015.1 |
| 20260904144523 | 91 | 210 | 1.0 | 4.0 | 0.00 | 0.00 | 0.00 | 65 | 1015.1 |
| 20260904143019 | 90 | 169 | 0.0 | 3.0 | 0.00 | 0.00 | 0.00 | 69 | 1015.2 |
| 20260904141526 | 88 | 34 | 1.0 | 7.0 | 0.00 | 0.00 | 0.00 | 72 | 1015.1 |
| 20260904140017 | 86 | 177 | 2.0 | 10.0 | 0.00 | 0.00 | 0.00 | 75 | 1015.1 |
| 20260904134504 | 84 | 167 | 2.0 | 6.0 | 0.00 | 0.00 | 0.00 | 78 | 1015.1 |
| 20260904133115 | 83 | 116 | 0.0 | 0.0 | 0.00 | 0.00 | 0.00 | 82 | 1015.2 |
| 20260904131557 | 81 | 237 | 0.0 | 6.0 | 0.00 | 0.00 | 0.00 | 84 | 1015.3 |
| 20260904130052 | 80 | 325 | 1.0 | 8.0 | 0.00 | 0.00 | 0.00 | 87 | 1015.4 |
| 20260904124552 | 78 | 245 | 1.0 | 5.0 | 0.00 | 0.00 | 0.00 | 90 | 1015.4 |
| 20260904123048 | 77 | 264 | 3.0 | 7.0 | 0.00 | 0.00 | 0.00 | 92 | 1015.4 |
| 20260904121546 | 76 | 219 | 1.0 | 3.0 | 0.00 | 0.00 | 0.00 | 93 | 1015.3 |
| 20260904120052 | 75 | 218 | 1.0 | 4.0 | 0.00 | 0.00 | 0.00 | 94 | 1015.3 |
| 20260904114545 | 75 | 249 | 2.0 | 3.0 | 0.00 | 0.00 | 0.00 | 93 | 1015.3 |
| 20260904113041 | 74 | 253 | 0.0 | 1.0 | 0.00 | 0.00 | 0.00 | 93 | 1015.2 |
| 20260904111539 | 75 | 253 | 0.0 | 2.0 | 0.00 | 0.00 | 0.00 | 93 | 1015.3 |
| 20260904110040 | 74 | 256 | 0.0 | 0.0 | 0.00 | 0.00 | 0.00 | 92 | 1015.0 |
| 20260904104535 | 75 | 256 | 0.0 | 3.0 | 0.00 | 0.00 | 0.00 | 92 | 1015.0 |
| 20260904103036 | 75 | 256 | 0.0 | 0.0 | 0.00 | 0.00 | 0.00 | 92 | 1014.9 |
| 20260904101533 | 75 | 256 | 1.0 | 3.0 | 0.00 | 0.00 | 0.00 | 92 | 1014.9 |
| 20260904100036 | 75 | 257 | 0.0 | 2.0 | 0.00 | 0.00 | 0.00 | 92 | 1014.9 |
| 20260904094540 | 75 | 258 | 0.0 | 3.0 | 0.00 | 0.00 | 0.00 | 92 | 1014.8 |
| 20260904093031 | 75 | 258 | 0.0 | 1.0 | 0.00 | 0.00 | 0.00 | 92 | 1014.7 |
| 20260904091535 | 75 | 258 | 0.0 | 1.0 | 0.00 | 0.00 | 0.00 | 92 | 1014.6 |
| 20260904090028 | 75 | 258 | 0.0 | 1.0 | 0.00 | 0.00 | 0.00 | 91 | 1014.6 |
| 20260904084529 | 75 | 258 | 0.0 | 2.0 | 0.00 | 0.00 | 0.00 | 91 | 1014.4 |
| 20260904083026 | 76 | 260 | 0.0 | 2.0 | 0.00 | 0.00 | 0.00 | 90 | 1014.3 |
| 20260904081526 | 76 | 262 | 0.0 | 2.0 | 0.00 | 0.00 | 0.00 | 90 | 1014.1 |
| 20260904080024 | 76 | 265 | 0.0 | 1.0 | 0.00 | 0.00 | 0.00 | 90 | 1014.1 |
| 20260904074522 | 76 | 229 | 0.0 | 2.0 | 0.00 | 0.00 | 0.00 | 90 | 1014.1 |
| 20260904073021 | 76 | 229 | 0.0 | 2.0 | 0.00 | 0.00 | 0.00 | 89 | 1014.0 |
| 20260904071520 | 76 | 229 | 0.0 | 2.0 | 0.00 | 0.00 | 0.00 | 89 | 1013.9 |
| 20260904070018 | 76 | 229 | 0.0 | 2.0 | 0.00 | 0.00 | 0.00 | 89 | 1014.2 |
| 20260904064523 | 76 | 231 | 0.0 | 1.0 | 0.00 | 0.00 | 0.00 | 88 | 1014.2 |
| 20260904063025 | 76 | 231 | 0.0 | 3.0 | 0.00 | 0.00 | 0.00 | 88 | 1014.6 |
| 20260904061512 | 77 | 233 | 0.0 | 2.0 | 0.00 | 0.00 | 0.00 | 87 | 1014.9 |
| 20260904060011 | 77 | 237 | 0.0 | 2.0 | 0.00 | 0.00 | 0.00 | 87 | 1015.2 |
| 20260904054509 | 77 | 237 | 0.0 | 1.0 | 0.00 | 0.00 | 0.00 | 87 | 1015.3 |
| 20260904053008 | 77 | 237 | 0.0 | 1.0 | 0.00 | 0.00 | 0.00 | 86 | 1015.6 |
| 20260904051506 | 78 | 236 | 0.0 | 0.0 | 0.00 | 0.00 | 0.00 | 86 | 1015.8 |
| 20260904050004 | 78 | 236 | 0.0 | 0.0 | 0.00 | 0.00 | 0.00 | 86 | 1015.8 |
| 20260904044507 | 78 | 237 | 0.0 | 1.0 | 0.00 | 0.00 | 0.00 | 85 | 1015.7 |
| 20260904043001 | 78 | 237 | 0.0 | 0.0 | 0.00 | 0.00 | 0.00 | 84 | 1015.8 |
| 20260904041602 | 78 | 237 | 0.0 | 1.0 | 0.00 | 0.00 | 0.00 | 84 | 1015.8 |
| 20260904040058 | 78 | 237 | 0.0 | 1.0 | 0.00 | 0.00 | 0.00 | 84 | 1015.6 |
| 20260904034557 | 79 | 237 | 0.0 | 2.0 | 0.00 | 0.00 | 0.00 | 83 | 1015.4 |
| 20260904033057 | 79 | 238 | 0.0 | 0.0 | 0.00 | 0.00 | 0.00 | 83 | 1015.2 |
| 20260904031559 | 79 | 237 | 0.0 | 0.0 | 0.00 | 0.00 | 0.00 | 82 | 1015.2 |
| 20260904030056 | 80 | 237 | 0.0 | 0.0 | 0.00 | 0.00 | 0.00 | 81 | 1015.2 |
| 20260904024605 | 80 | 237 | 0.0 | 0.0 | 0.00 | 0.00 | 0.00 | 80 | 1015.3 |
| 20260904023055 | 80 | 237 | 0.0 | 0.0 | 0.00 | 0.00 | 0.00 | 79 | 1015.2 |
| 20260904021557 | 81 | 237 | 0.0 | 0.0 | 0.00 | 0.00 | 0.00 | 78 | 1015.4 |
| 20260904020054 | 82 | 237 | 0.0 | 0.0 | 0.00 | 0.00 | 0.00 | 77 | 1015.5 |
| 20260904014555 | 82 | 237 | 0.0 | 1.0 | 0.00 | 0.00 | 0.00 | 75 | 1015.4 |
| 20260904013113 | 83 | 237 | 0.0 | 0.0 | 0.00 | 0.00 | 0.00 | 74 | 1015.3 |
| 20260904011552 | 84 | 237 | 0.0 | 1.0 | 0.00 | 0.00 | 0.00 | 72 | 1015.3 |
| 20260904010052 | 85 | 237 | 0.0 | 1.0 | 0.00 | 0.00 | 0.00 | 70 | 1015.0 |
| 20260904004551 | 87 | 237 | 0.0 | 1.0 | 0.00 | 0.00 | 0.00 | 66 | 1014.7 |
| 20260904003051 | 88 | 237 | 0.0 | 2.0 | 0.00 | 0.00 | 0.00 | 63 | 1014.6 |
| 20260904001605 | 90 | 215 | 0.0 | 2.0 | 0.00 | 0.00 | 0.00 | 60 | 1014.1 |
| 20260904000049 | 92 | 214 | 0.0 | 4.0 | 0.00 | 0.00 | 0.00 | 57 | 1013.9 |
| 20260903234548 | 92 | 206 | 3.0 | 6.0 | 0.00 | 0.00 | 0.00 | 55 | 1013.7 |
| 20260903233047 | 93 | 184 | 1.0 | 6.0 | 0.00 | 0.00 | 0.00 | 55 | 1013.7 |
| 20260903231548 | 95 | 198 | 2.0 | 8.0 | 0.00 | 0.00 | 0.00 | 52 | 1013.4 |
| 20260903230046 | 95 | 156 | 2.0 | 10.0 | 0.00 | 0.00 | 0.00 | 51 | 1013.4 |
| 20260903224549 | 96 | 208 | 3.0 | 6.0 | 0.00 | 0.00 | 0.00 | 51 | 1013.3 |
| 20260903223049 | 97 | 203 | 3.0 | 8.0 | 0.00 | 0.00 | 0.00 | 50 | 1013.3 |
| 20260903221545 | 97 | 190 | 2.0 | 10.0 | 0.00 | 0.00 | 0.00 | 50 | 1013.3 |
| 20260903220044 | 98 | 221 | 2.0 | 7.0 | 0.00 | 0.00 | 0.00 | 48 | 1013.4 |
| 20260903214543 | 98 | 62 | 2.0 | 7.0 | 0.00 | 0.00 | 0.00 | 48 | 1013.5 |
| 20260903213050 | 98 | 173 | 1.0 | 9.0 | 0.00 | 0.00 | 0.00 | 49 | 1013.8 |
| 20260903211541 | 97 | 172 | 2.0 | 5.0 | 0.00 | 0.00 | 0.00 | 50 | 1013.5 |
| 20260903210040 | 96 | 155 | 0.0 | 5.0 | 0.00 | 0.00 | 0.00 | 51 | 1013.9 |
| 20260903204541 | 98 | 192 | 0.0 | 3.0 | 0.00 | 0.00 | 0.00 | 51 | 1013.9 |
| 20260903203039 | 100 | 191 | 0.0 | 2.0 | 0.00 | 0.00 | 0.00 | 46 | 1014.0 |
| 20260903201534 | 102 | 196 | 1.0 | 4.0 | 0.00 | 0.00 | 0.00 | 41 | 1014.2 |
| 20260903200033 | 101 | 223 | 0.0 | 4.0 | 0.00 | 0.00 | 0.00 | 45 | 1014.4 |